NOAA 16 DEB, 41349

Orbit data source: Space-Track

NOAA 16 DEB, 41349 is space debris in SSO originally from a launch on Thu, 21 Sep 2000 UTC launched from the Air Force Western Test Range (AFWTR). Debris objects in space refer to the collection of defunct objects orbiting the Earth. Examples of debris include non-operational satellites, rocket bodies, and fragments generated from explosions, collisions, or faulty payload assembly.

Loading next visibility...
Identifier
41349, 2000-055HS
Orbit
SSO
Country
Flag of USUS
Related business
Manufacturer
Unknown
Mission
Spacecraft
Bus & Motor
Unknown
Mass
Unknown
Launch date (UTC)
2000-09-21 (25 years ago)
Launch vehicle
Unknown
Launch site
Air Force Western Test Range (AFWTR)
Object type
Payload
Rocket body
Debris
Shape & HBR
Unknown shape, 0.1 m
Radar Cross Section
Small (<0.1 m²)

Expand to show TLE details & history
Last TLE update: 2 days ago

TLE from 2 days ago
0 NOAA 16 DEB
1 41349U 00055HS  25348.50095747  .00009103  00000-0  23079-2 0  9996
2 41349  98.9775 182.2318 0031330 297.2877  62.5126 14.50780248516648
Epoch: 2025-12-14T12:01Z
TLE epoch observation values (Epoch: 2025-12-14T12:01:22.725Z)
Latitude
-0.00002°
Longitude
-81.52586°
Altitude
715.833 km
Speed
7.503 km/s
True Right ascension
12h 08m 55s
True Declination
0° 00' 00"
Sunlit
Object was in daylight at epoch
Visualization orbit readout
Latitude
Unknown
Longitude
Unknown
Altitude
Unknown
Speed
Unknown
Apparent Right ascension
Unknown
Apparent Declination
Unknown
Sunlit
N/A
Visualization observer readout
Local Sidereal Time
18:24:58
Azimuth
Unknown
Elevation
Unknown
Doppler factor
Unknown
Orbital elements
Apogee altitude
742.471 km
Perigee altitude
697.993 km
Semi-major axis
7,098.369 km
Eccentricity
0.00313
Inclination
98.9775°
RAAN
182.2318°
Arg. of periapsis
297.2877°
True anomaly
62.83166°
Mean anomaly
62.5126°
Eccentric anomaly
62.67207°
Mean motion
3.62915 °/min
Orbital period
99.2 mins
BSTAR
0.0023079
Loading maneuver chart data...
Computing Atmospheric mass density...
Loading historical data...
Loading historical data...
Loading historical data...
Loading historical data...
Loading historical data...
Loading historical data...
Loading historical data...

Documentation

Showing up to 5 results
|